Bookmark and Share
Track history (hours):
 

CSCL Long Beach

Last reported at 2014-Apr-24 03:31 UTC. Time now 2014-Apr-24 03:41 UTC.
Position N 53°32' E 009°56'.

Length 336.7 m; beam 45.6 m; draft 15 m.

Type: Ship (hazmat cat A). MMSI: 477883900.

NotesDate/timePositionNaut miles runAvg speedWind from/ knotsBaromVisibWave heightAir tempDewpointWater temp
2014-Apr-24 03:31N 53°32' E 009°56'0 0.0
2014-Apr-24 02:28N 53°32' E 009°56'0 0.0
2014-Apr-24 01:31N 53°32' E 009°56'0 0.0
2014-Apr-24 00:31N 53°32' E 009°56'0 0.0
2014-Apr-23 23:31N 53°32' E 009°56'0 0.0
2014-Apr-23 22:31N 53°32' E 009°56'0 0.0
2014-Apr-23 21:31N 53°32' E 009°56'0 0.0
2014-Apr-23 20:31N 53°32' E 009°56'0 0.0
2014-Apr-23 19:28N 53°32' E 009°55'0 0.0
2014-Apr-23 18:28N 53°32' E 009°56'0 0.0
2014-Apr-23 16:31N 53°32' E 009°55'0 0.0
2014-Apr-23 15:31N 53°32' E 009°56'0 0.0
2014-Apr-23 14:31N 53°32' E 009°56'0 0.0
2014-Apr-23 13:31N 53°32' E 009°56'0 0.0
2014-Apr-23 12:31N 53°32' E 009°56'0 0.0
2014-Apr-23 11:31N 53°32' E 009°56'0 0.0
2014-Apr-23 10:31N 53°32' E 009°56'1 0.8
2014-Apr-23 09:33N 53°32' E 009°54'7 6.9
2014-Apr-23 08:33N 53°34' E 009°43'1111.3
2014-Apr-23 07:34N 53°42' E 009°30'1514.5
2014-Apr-23 06:33N 53°53' E 009°13'1312.7
2014-Apr-23 05:33N 53°50' E 008°52'1211.8
2014-Apr-23 04:33N 53°58' E 008°36'1313.2
2014-Apr-23 03:34N 53°60' E 008°14'1211.6
2014-Apr-23 02:34N 54°03' E 007°55'7 6.9
2014-Apr-23 01:31N 54°06' E 007°44'0 0.1
2014-Apr-23 00:25N 54°05' E 007°44'0 0.2
2014-Apr-22 23:31N 54°06' E 007°44'0 0.1
2014-Apr-22 22:25N 54°06' E 007°44'0 0.0
2014-Apr-22 21:28N 54°06' E 007°44'0 0.0
2014-Apr-22 20:31N 54°06' E 007°44'0 0.0
2014-Apr-22 19:28N 54°06' E 007°44'0 0.1
2014-Apr-22 18:31N 54°06' E 007°44'0 0.0
2014-Apr-22 17:28N 54°06' E 007°44'0 0.2
2014-Apr-22 16:28N 54°06' E 007°44'0 0.1
2014-Apr-22 15:31N 54°06' E 007°44'0 0.1
2014-Apr-22 14:31N 54°06' E 007°44'0 0.0
2014-Apr-22 13:28N 54°06' E 007°44'0 0.0
2014-Apr-22 12:31N 54°06' E 007°44'0 0.3
2014-Apr-22 11:31N 54°06' E 007°44'0 0.0
2014-Apr-22 10:28N 54°06' E 007°44'0 0.0
2014-Apr-22 09:31N 54°06' E 007°44'0 0.0
2014-Apr-22 08:31N 54°06' E 007°44'0 0.0
2014-Apr-22 07:31N 54°06' E 007°44'0 0.0
2014-Apr-22 06:31N 54°06' E 007°44'0 0.0
2014-Apr-22 05:28N 54°06' E 007°44'0 0.1
2014-Apr-22 04:31N 54°06' E 007°44'0 0.1
2014-Apr-22 03:31N 54°06' E 007°44'0 0.1
2014-Apr-22 02:33N 54°06' E 007°44'5 5.1
2014-Apr-22 01:33N 54°08' E 007°36'1615.5
2014-Apr-22 00:33N 54°09' E 007°10'1615.6
2014-Apr-21 23:34N 54°09' E 006°43'1515.0
2014-Apr-21 22:33N 54°08' E 006°17'2214.6
2014-Apr-21 21:04N 54°05' E 005°41'714.2
2014-Apr-21 20:33N 54°04' E 005°29'1413.8
2014-Apr-21 19:33N 54°02' E 005°05'9513.1
2014-Apr-21 12:16N 52°51' E 003°19'1413.6
2014-Apr-21 11:12N 52°39' E 003°06'913.9
2014-Apr-21 10:33N 52°31' E 002°59'1414.5
2014-Apr-21 09:33N 52°18' E 002°48'1514.9
2014-Apr-21 08:33N 52°06' E 002°35'1615.5
2014-Apr-21 07:33N 51°56' E 002°15'1615.8
2014-Apr-21 06:34N 51°48' E 001°53'1312.8
2014-Apr-21 05:33N 51°53' E 001°34'10 9.9
2014-Apr-21 04:34N 51°57' E 001°19'0 0.3
2014-Apr-21 03:31N 51°57' E 001°19'0 0.0
2014-Apr-21 02:32N 51°57' E 001°19'0 0.0
2014-Apr-21 01:32N 51°57' E 001°19'0 0.0
2014-Apr-21 00:32N 51°57' E 001°19'0 0.0
2014-Apr-20 23:32N 51°57' E 001°19'0 0.0
2014-Apr-20 22:32N 51°57' E 001°19'0 0.0
2014-Apr-20 21:32N 51°57' E 001°19'0 0.0
2014-Apr-20 20:32N 51°57' E 001°19'0 0.0
2014-Apr-20 19:32N 51°57' E 001°19'0 0.0
2014-Apr-20 18:32N 51°57' E 001°19'0 0.0
2014-Apr-20 17:32N 51°57' E 001°19'0 0.0
2014-Apr-20 16:32N 51°57' E 001°19'0 0.0
2014-Apr-20 15:32N 51°57' E 001°19'0 0.0
2014-Apr-20 14:32N 51°57' E 001°19'0 0.0
2014-Apr-20 13:32N 51°57' E 001°19'0 0.0
2014-Apr-20 12:32N 51°57' E 001°19'0 0.0
2014-Apr-20 11:32N 51°57' E 001°19'0 0.0
2014-Apr-20 10:32N 51°57' E 001°19'0 0.0
2014-Apr-20 09:32N 51°57' E 001°19'0 0.0
2014-Apr-20 08:32N 51°57' E 001°19'0 0.0
2014-Apr-20 07:32N 51°57' E 001°19'0 0.0
2014-Apr-20 06:32N 51°57' E 001°19'0 0.0
2014-Apr-20 05:32N 51°57' E 001°19'0 0.0
2014-Apr-20 04:32N 51°57' E 001°19'0 0.0
2014-Apr-20 03:32N 51°57' E 001°19'0 0.0
2014-Apr-20 02:32N 51°57' E 001°19'0 0.0
2014-Apr-20 01:33N 51°57' E 001°19'0 0.0
2014-Apr-20 00:32N 51°57' E 001°19'0 0.0
2014-Apr-19 23:32N 51°57' E 001°19'0 0.0
2014-Apr-19 22:32N 51°57' E 001°19'0 0.0
2014-Apr-19 21:32N 51°57' E 001°19'0 0.0
2014-Apr-19 20:32N 51°57' E 001°19'0 0.0
2014-Apr-19 19:32N 51°57' E 001°19'0 0.0
2014-Apr-19 18:32N 51°57' E 001°19'0 0.0
2014-Apr-19 17:32N 51°57' E 001°19'1 0.6
2014-Apr-19 16:34N 51°56' E 001°19'1010.1
2014-Apr-19 15:34N 51°53' E 001°34'7 7.1
2014-Apr-19 14:33N 51°56' E 001°44'2 2.4
2014-Apr-19 13:33N 51°58' E 001°44'4 3.9
2014-Apr-19 12:34N 51°56' E 001°48'1313.3
2014-Apr-19 11:34N 51°42' E 001°49'1212.3
2014-Apr-19 10:33N 51°30' E 001°53'1110.8
2014-Apr-19 09:33N 51°20' E 001°58'1212.3
2014-Apr-19 08:33N 51°10' E 001°46'1212.2
2014-Apr-19 07:33N 51°01' E 001°34'2712.4
2014-Apr-19 05:25N 50°37' E 001°15'1112.5
2014-Apr-19 04:33N 50°30' E 001°03'1212.1
2014-Apr-19 03:32N 50°26' E 000°44'1212.3
2014-Apr-19 02:33N 50°24' E 000°26'1312.5
2014-Apr-19 01:33N 50°20' E 000°07'3214.1
2014-Apr-18 23:18N 50°11' W 000°41'1216.6
2014-Apr-18 22:34N 50°08' W 000°59'2117.8
2014-Apr-18 21:22N 50°02' W 001°31'34813.9
2014-Apr-17 20:19N 46°00' W 007°45'1214.4
2014-Apr-17 19:29N 45°50' W 007°53'46812.6
2014-Apr-16 06:19N 38°09' W 009°43'1114.7
2014-Apr-16 05:33N 37°58' W 009°40'1514.6
2014-Apr-16 04:33N 37°44' W 009°35'1514.6
2014-Apr-16 03:33N 37°30' W 009°31'1914.8
2014-Apr-16 02:15N 37°11' W 009°26'1414.9
2014-Apr-16 01:20N 36°57' W 009°22'2914.2
2014-Apr-15 23:17N 36°41' W 008°52'1115.3
2014-Apr-15 22:33N 36°37' W 008°39'2015.2
2014-Apr-15 21:14N 36°31' W 008°16'12813.1
2014-Apr-15 11:30N 35°58' W 005°43'1314.3
2014-Apr-15 10:34N 35°60' W 005°26'43315.4
2014-Apr-14 06:30N 37°41' E 003°20'1717.4
2014-Apr-14 05:33N 37°42' E 003°41'  

Dump ship's entire track history

sailing weather and tide predictions

CSCL Long Beach — VRCZ7 — position and weather